Regional Weather Roundup
Issued by NWS

Home | Current Version | Previous Version | Text Only | Print | Product List | Glossary Off
Versions: 1 2 3 4 5 6 7 8 9 10 11 12 13 14 15 16 17 18 19 20 21 22 23 24 25 26 27 28 29 30 31 32 33 34 35 36 37 38 39 40 41 42 43 44 45 46 47 48 49 50

295
ASUS43 KLMK 250510
RWRKY
KENTUCKY REGIONAL WEATHER ROUNDUP
NATIONAL WEATHER SERVICE LOUISVILLE KY
100 AM EDT SAT MAR 25 2017

NOTE "FAIR" INDICATES FEW OR NO CLOUDS BELOW 12,000 FEET
WITH NO SIGNIFICANT WEATHER AND/OR OBSTRUCTIONS TO VISIBILITY.

KYZ001>023-026-027-061>063-070>075-250600-
WESTERN AND SOUTH CENTRAL KENTUCKY

CITY           SKY/WX    TMP DP  RH WIND       PRES   REMARKS
PADUCAH        CLOUDY    68  54  60 S15       29.99F
HENDERSON      CLOUDY    64  52  63 SE8       30.04F
OWENSBORO      MOCLDY    63  54  72 SE9       30.08F
HOPKINSVILLE   CLOUDY    67  54  63 SE8       30.07F
BOWLING GREEN  CLOUDY    66  51  58 S8        30.12F
GLASGOW        PTCLDY    64  49  59 S7        30.13F
$$

KYZ024-025-028>034-038-045-046-053-250600-
NORTH CENTRAL KENTUCKY

CITY           SKY/WX    TMP DP  RH WIND       PRES   REMARKS
LOUISVILLE/SDF PTCLDY    68  50  52 S10       30.13S
LOUISVILLE/LOU CLEAR     66  52  60 S3        30.14S
FORT KNOX      CLOUDY    62  52  68 SE7       30.11F
$$

KYZ035>037-039>044-047>052-055>060-089>105-250600-
NORTHEAST KENTUCKY

CITY           SKY/WX    TMP DP  RH WIND       PRES   REMARKS
LEXINGTON      CLOUDY    61  48  62 S6        30.17S
COVINGTON      MOCLDY    63  52  67 S7        30.14S
FRANKFORT      MOCLDY    61  48  62 CALM      30.15S
$$

KYZ054-064>069-076>088-106>120-250600-
SOUTHEAST KENTUCKY

CITY           SKY/WX    TMP DP  RH WIND       PRES   REMARKS
JACKSON        CLOUDY    62  48  60 VRB5      30.19F
LONDON         MOCLDY    63  45  51 S9        30.19F
SOMERSET       CLOUDY    61  46  59 CALM      30.20S
MIDDLESBORO    PTCLDY    63  47  57 E5        30.24S
MONTICELLO     CLOUDY    64  48  56 SE8       30.19F
$$





USA.gov is the U.S. government's official web portal to all federal, state and local government web resources and services.